Regional Weather Roundup
Issued by NWS

Home | Current Version | Previous Version | Text Only | Print | Product List | Glossary Off
Versions: 1 2 3 4 5 6 7 8 9 10 11 12 13 14 15 16 17 18 19 20 21 22 23 24 25 26 27 28 29 30 31 32 33 34 35 36 37 38 39 40 41 42 43 44 45 46 47 48 49 50

000
ASUS43 KMPX 240910
RWRMN
WEATHER ROUNDUP FOR MINNESOTA
NATIONAL WEATHER SERVICE TWIN CITIES/CHANHASSEN MN
400 AM CDT MON APR 24 2017


NOTE: "FAIR" INDICATES FEW OR NO CLOUDS BELOW 12,000 FEET WITH NO
SIGNIFICANT WEATHER AND/OR OBSTRUCTIONS TO VISIBILITY. N/A MEANS
CURRENT SKY AND/OR WEATHER CONDITIONS ARE NOT AVAILABLE.

MNZ060>063-068>070-241000-
   Twin Cities Metro

CITY           SKY/WX    TMP DP  RH WIND       PRES   REMARKS
TWIN CITIES    PTCLDY    50  37  61 SE5       29.83F
ST PAUL        PTCLDY    46  41  82 CALM      29.85S
CRYSTAL        PTCLDY    43  36  76 N3        29.82F
BLAINE         CLOUDY    43  39  87 CALM      29.83F
LAKEVILLE      CLOUDY    54  36  50 S8        29.83S
EDEN PRAIRIE   PTCLDY    47  39  74 SE3       29.81F
SOUTH ST PAUL  CLOUDY    47  41  80 CALM      29.83F
LAKE ELMO      FAIR      45  39  81 E6        29.85F
$$
MNZ001>005-007-008-013>017-022>024-027-028-241000-
   Northwest Minnesota

CITY           SKY/WX    TMP DP  RH WIND       PRES   REMARKS
BEMIDJI        CLOUDY    33  28  80 E14G21    29.84F WCI  23
HALLOCK        CLOUDY    36  25  64 E17       29.87F
ROSEAU         LGT SNOW  32  28  86 E20G25    29.91F WCI  20
WARROAD        LGT SNOW  34  28  80 E17       29.94F WCI  23
THIEF RVR FALL CLOUDY    33  30  88 E20       29.83F WCI  21
CROOKSTON      CLOUDY    36  30  80 E14       29.82S
FOSSTON        PTCLDY    32  27  80 E12G17    29.81F WCI  23
DETROIT LAKES  CLOUDY    34  28  80 E12G20    29.76F WCI  25
MOORHEAD       CLOUDY    37  28  70 E13G20    29.73F
PARK RAPIDS    CLOUDY    33  23  66 E13       29.81F WCI  24
MAHNOMEN       CLOUDY    34  29  82 E14G20    29.77F WCI  25
$$
MNZ006-009>011-018-025>026-241000-
   North Central Minnesota

CITY           SKY/WX    TMP DP  RH WIND       PRES   REMARKS
BAUDETTE       LGT SNOW  31  28  89 E14       29.93F FOG     WCI  21
FLAG ISLAND    CLOUDY    34  14  44 E9G17     29.96F WCI  26
INTL FALLS     LGT SNOW  32  28  85 E7        29.97F FOG     WCI  26
WASKISH        CLOUDY    32  30  93 E12G18    29.90F WCI  23
BIG FORK       PTCLDY    32  28  86 E9        29.91F WCI  24
LONGVILLE      PTCLDY    32  25  74 E7        29.85S WCI  26
GRAND RAPIDS   CLOUDY    31  24  75 E9        29.90F WCI  23
CRANE LAKE     LGT SNOW  28  27  93 CALM      30.01F VSB 1
ORR            CLOUDY    30  27  86 MISG      29.94S
COOK           CLOUDY    28  27  93 E6        29.96S WCI  22
WALKER         FAIR      33  26  75 E14G22    29.85S WCI  23
$$
MNZ012-019>021-037-241000-
   Northeast Minnesota

CITY           SKY/WX    TMP DP  RH WIND       PRES   REMARKS
DULUTH         CLOUDY    31  27  85 E22G38    29.92F WCI  18
ELY            CLOUDY    28  25  86 E8        29.99F WCI  20
HIBBING        CLOUDY    31  23  72 E16G23    29.91F WCI  20
EVELETH        CLOUDY    32  20  61 E12G18    29.93F WCI  23
DULUTH HARBOR  CLOUDY    37  32  81 NE32      29.98F
TWO HARBORS    CLOUDY    34  28  80 E21G29    29.97F WCI  22
SILVER BAY     CLOUDY    30  28  93 NE16G26   30.01F WCI  19
GRAND MARAIS     N/A     31  27  85 NE13      30.10F WCI  21
G MARAIS ARPRT CLOUDY    25  19  80 E10G16    30.05S WCI  15
$$
MNZ029>031-032-039>041-046>048-054>057-064-241000-
   West Central Minnesota

CITY           SKY/WX    TMP DP  RH WIND       PRES   REMARKS
FERGUS FALLS   CLOUDY    37  30  75 E16G23    29.71F
WHEATON        MOCLDY    41  34  75 E16       29.69F
MORRIS         CLOUDY    39  36  87 E20       29.69F
ALEXANDRIA     CLOUDY    35  32  88 E15       29.76F WCI  25
ELBOW LAKE     FAIR      38  34  87 SE20G28   29.71F
WADENA         CLOUDY    32  27  80 E10G17    29.78F WCI  24
GLENWOOD       CLOUDY    36  34  93 E13       29.76F
APPLETON       MOCLDY    46  37  71 E10       29.69F
BENSON         CLOUDY    45  34  65 SE13      29.73F
ORTONVILLE     CLOUDY    45  37  76 SE12      29.67F
MADISON        CLOUDY    57  36  44 S8        29.68F
WILLMAR        FAIR      45  37  76 E9        29.76F
$$
MNZ033>034-036-042>043-049>051-058-059-241000-
   Central Minnesota

CITY           SKY/WX    TMP DP  RH WIND       PRES   REMARKS
ST CLOUD       CLOUDY    36  32  85 VRB5      29.81F
SAUK CENTRE    FAIR      34  32  90 E12       29.79F WCI  26
PAYNESVILLE    CLOUDY    39  34  84 E7        29.79F
AITKIN         PTCLDY    36  25  64 E6        29.85F
PINE RIVER     CLOUDY    34  27  75 E12       29.88S WCI  25
BRAINERD       CLOUDY    33  26  75 E6        29.84F WCI  28
STAPLES        CLOUDY    32  25  74 E8        29.80F WCI  25
LONG PRAIRIE   FAIR      32  30  93 NE9       29.80F WCI  24
LITTLE FALLS   PTCLDY    34  30  86 E5        29.82F WCI  30
LITCHFIELD     MOCLDY    41  37  87 E7        29.79F
BUFFALO        PTCLDY    40  35  83 NE5       29.83S
MAPLE LAKE     MOCLDY    40  37  89 E7        29.82F
HUTCHINSON     PTCLDY    44  38  81 E5        29.80F
$$
MNZ037-044-045-052-053-241000-
   East Central Minnesota

CITY           SKY/WX    TMP DP  RH WIND       PRES   REMARKS
PRINCETON      CLOUDY    37  32  81 NE8       29.84F
MORA           CLOUDY    34  30  86 E6        29.88F WCI  29
CAMBRIDGE      CLOUDY    39  30  70 NE5       29.84S
RUSH CITY      CLOUDY    36  32  85 NE9       29.86F
MOOSE LAKE     PTCLDY    34  28  80 E8G17     29.89S WCI  27
HINCKLEY       FAIR      36  32  87 NE8       29.88F
CLOQUET        CLOUDY    32  27  80 E15G30    29.91F WCI  22
MCGREGOR       CLOUDY    34  28  80 E13G20    29.88F WCI  25
$$
MNZ071>073-080-081-089-090-097-098-241000-
   Southwest Minnesota

CITY           SKY/WX    TMP DP  RH WIND       PRES   REMARKS
MONTEVIDEO     CLOUDY    48  36  61 S8        29.71F
GRANITE FALLS  CLOUDY    51  36  54 SE8       29.73F
CANBY          CLOUDY    58  32  38 SW21G29   29.68F
MARSHALL       CLOUDY    56  32  40 S22G31    29.70F
REDWOOD FALLS  PTCLDY    50  33  52 S13       29.75S
OLIVIA         PTCLDY    50  34  53 SE7       29.75S
PIPESTONE      CLOUDY    50  28  43 S13       29.72F
WINDOM         CLOUDY    54  32  43 S13       29.77F
WORTHINGTON    CLOUDY    53  33  46 S18       29.77F
JACKSON        CLOUDY    50  32  50 S12       29.80F
TRACY          CLOUDY    55  33  43 S14G21    29.74F
SLAYTON        CLOUDY    52  32  46 S17       29.75F
$$
MNZ065>067-074>077-082>085-091>093-241000-
   South Central Minnesota

CITY           SKY/WX    TMP DP  RH WIND       PRES   REMARKS
MANKATO        PTCLDY    52  33  48 S10       29.82F
NEW ULM        PTCLDY    52  34  50 S12       29.78F
ST JAMES       PTCLDY    52  36  54 S14       29.80F
FAIRMONT       PTCLDY    49  34  56 S10       29.82F
GLENCOE        CLOUDY    51  38  60 SE3       29.80S
FARIBAULT      CLOUDY    54  36  50 S7        29.85S
OWATONNA       PTCLDY    52  34  50 S13       29.85S
WASECA         PTCLDY    54  32  43 S16       29.85S
ALBERT LEA     CLOUDY    50  32  50 S8        29.86F
$$
MNZ078>079-086>088-094>096-241000-
   Southeast Minnesota

CITY           SKY/WX    TMP DP  RH WIND       PRES   REMARKS
ROCHESTER      PTCLDY    49  35  58 S12       29.89S
RED WING       MOCLDY    55  30  38 S8        29.86R
STANTON        CLOUDY    54  35  48 SW7       29.83S
DODGE CENTER   PTCLDY    48  36  61 S10       29.87F
WINONA         CLEAR     48  41  76 S7        29.92S
AUSTIN         CLOUDY    50  34  53 S9        29.87F
PRESTON        CLEAR     48  32  54 S7        29.91S
$$
ABBREVIATIONS USED IN REMARKS
   TC - TEMPERATURES IN CELSIUS
  WCI - WIND CHILL INDEX
   HX - HEAT INDEX
  VSB - VISIBILITY
$$




USA.gov is the U.S. government's official web portal to all federal, state and local government web resources and services.